KD2VWU Weather Reports


Display with metric or nautical units.
time (UTC)temp
F
wind
direction
speed
MPH
gust
MPH
rain 1hr
in
rain 24hr
in
rain mn
in
humidity
%
barometer
mb
20260506091115 55 82 0.0 0.0 0.00 0.00 0.00 98 1006.4
20260506090613 54 72 0.0 0.0 0.00 0.00 0.00 97 1006.3
20260506090109 55 163 0.0 0.0 0.00 0.00 0.00 97 1006.6
20260506085606 55 187 0.0 0.0 0.00 0.00 0.00 97 1006.6
20260506085102 55 188 0.0 0.0 0.00 0.00 0.00 96 1006.6
20260506084559 55 188 0.0 0.0 0.00 0.00 0.00 96 1006.8
20260506084056 55 75 0.0 0.0 0.00 0.00 0.00 96 1006.7
20260506083553 55 88 0.0 0.0 0.00 0.00 0.00 96 1006.8
20260506083050 55 47 0.0 0.0 0.00 0.00 0.00 96 1006.6
20260506082547 55 72 0.0 0.0 0.00 0.00 0.00 96 1006.7
20260506082042 55 75 0.0 0.0 0.00 0.00 0.00 95 1006.7
20260506081541 55 109 0.0 0.0 0.00 0.00 0.00 95 1006.8
20260506081038 55 82 0.0 0.0 0.00 0.00 0.00 95 1006.6
20260506080535 55 78 1.0 1.0 0.00 0.00 0.00 94 1006.7
20260506073519 56 101 0.0 0.0 0.00 0.00 0.00 92 1006.7
20260506073016 56 246 0.0 1.0 0.00 0.00 0.00 92 1006.8
20260506072513 56 70 0.0 0.0 0.00 0.00 0.00 92 1006.7
20260506072011 57 68 0.0 0.0 0.00 0.00 0.00 91 1006.9
20260506071508 57 98 0.0 0.0 0.00 0.00 0.00 91 1006.7
20260506071005 57 76 0.0 0.0 0.00 0.00 0.00 91 1006.9
20260506070503 57 102 1.0 1.0 0.00 0.00 0.00 91 1006.8
20260506062440 58 75 0.0 0.0 0.00 0.00 0.00 87 1007.0
20260506061936 58 116 0.0 0.0 0.00 0.00 0.00 86 1006.9
20260506061432 59 120 0.0 0.0 0.00 0.00 0.00 85 1006.8
20260506060930 59 88 0.0 0.0 0.00 0.00 0.00 85 1006.7
20260506060428 59 86 0.0 0.0 0.00 0.00 0.00 84 1006.8
20260506051400 62 277 1.0 1.0 0.00 0.00 0.00 77 1007.3
20260506050857 62 230 1.0 1.0 0.00 0.00 0.00 77 1007.2
20260506050355 62 49 0.0 0.0 0.00 0.00 0.00 77 1007.2
20260506044845 63 258 2.0 2.0 0.00 0.00 0.00 76 1007.2
20260506044343 62 312 1.0 2.0 0.00 0.00 0.00 75 1007.2
20260506043840 62 236 2.0 2.0 0.00 0.00 0.00 76 1007.3
20260506043337 63 68 1.0 1.0 0.00 0.00 0.00 75 1007.3
20260506042835 63 179 1.0 1.0 0.00 0.00 0.00 76 1007.4
20260506042334 63 233 1.0 2.0 0.00 0.00 0.00 74 1007.4
20260506041833 63 111 1.0 1.0 0.00 0.00 0.00 75 1007.1
20260506041329 63 93 1.0 1.0 0.00 0.00 0.00 74 1007.1
20260506040826 63 195 1.0 1.0 0.00 0.00 0.00 74 1007.2
20260506040324 63 154 0.0 1.0 0.00 0.00 0.00 75 1007.3
20260506035820 63 51 0.0 0.0 0.00 0.02 0.02 74 1007.2
20260506035317 64 20 2.0 3.0 0.00 0.02 0.02 73 1007.2
20260506034814 64 192 1.0 1.0 0.00 0.02 0.02 73 1007.2
20260506034312 64 250 3.0 3.0 0.00 0.02 0.02 72 1007.1
20260506033809 64 244 0.0 1.0 0.00 0.02 0.02 73 1007.3
20260506033305 64 45 0.0 0.0 0.00 0.02 0.02 72 1007.3
20260506032802 64 165 0.0 1.0 0.00 0.02 0.02 72 1007.1
20260506032259 65 102 0.0 0.0 0.00 0.02 0.02 71 1007.3
20260506031755 65 258 2.0 3.0 0.00 0.02 0.02 70 1007.1
20260506031253 65 287 1.0 1.0 0.00 0.02 0.02 70 1006.9
20260506030751 65 107 0.0 0.0 0.00 0.02 0.02 70 1007.1
20260506030249 66 93 2.0 2.0 0.00 0.02 0.02 70 1007.0
20260506025745 65 185 1.0 1.0 0.00 0.02 0.02 70 1007.1
20260506025242 65 66 2.0 2.0 0.00 0.02 0.02 70 1007.0
20260506024739 66 59 0.0 0.0 0.00 0.02 0.02 70 1006.9
20260506024235 65 236 1.0 1.0 0.00 0.02 0.02 68 1007.0
20260506023731 65 161 1.0 1.0 0.00 0.02 0.02 70 1007.1
20260506023229 65 193 1.0 2.0 0.00 0.02 0.02 69 1007.1
20260506022725 64 201 3.0 5.0 0.00 0.02 0.02 70 1007.0
20260506022223 65 60 0.0 1.0 0.00 0.02 0.02 70 1007.1
20260506021721 64 161 1.0 1.0 0.00 0.02 0.02 71 1007.1
20260506021218 64 245 1.0 2.0 0.00 0.02 0.02 71 1007.0
20260506020714 64 65 0.0 1.0 0.00 0.02 0.02 71 1006.8
20260506020213 64 264 3.0 3.0 0.00 0.02 0.02 71 1006.8
20260506015710 64 110 0.0 0.0 0.00 0.02 0.02 71 1007.0
20260506015207 64 129 1.0 1.0 0.00 0.02 0.02 72 1006.8
20260506014704 64 278 2.0 2.0 0.00 0.02 0.02 70 1006.8
20260506014200 65 169 0.0 0.0 0.00 0.02 0.02 70 1006.7
20260506013658 64 145 0.0 1.0 0.00 0.02 0.02 70 1006.7
20260506013155 64 255 3.0 5.0 0.00 0.02 0.02 70 1006.7
20260506012651 65 55 2.0 2.0 0.00 0.02 0.02 70 1006.4
20260506012148 65 88 2.0 2.0 0.00 0.02 0.02 70 1006.5
20260506011645 65 92 0.0 0.0 0.00 0.02 0.02 69 1006.3
20260506011141 65 188 1.0 1.0 0.00 0.02 0.02 68 1006.3
20260506010640 66 136 0.0 1.0 0.00 0.02 0.02 68 1006.3
20260506010137 66 63 0.0 0.0 0.00 0.02 0.02 66 1006.2
20260506005634 67 95 0.0 0.0 0.00 0.02 0.02 65 1006.1
20260506005131 67 62 0.0 0.0 0.00 0.02 0.02 64 1006.1
20260506004627 68 59 0.0 0.0 0.00 0.02 0.02 61 1006.1
20260506004124 68 222 1.0 1.0 0.00 0.02 0.02 60 1005.9
20260506003620 68 80 1.0 2.0 0.00 0.02 0.02 60 1006.0
20260506003117 68 62 0.0 0.0 0.00 0.02 0.02 60 1005.9
20260506002613 68 214 0.0 0.0 0.00 0.02 0.02 61 1005.7
20260506002109 68 86 0.0 0.0 0.00 0.02 0.02 60 1005.5
20260506001605 68 142 0.0 1.0 0.00 0.02 0.02 61 1005.7
20260506001102 68 69 0.0 1.0 0.00 0.02 0.02 62 1005.6
20260506000600 68 100 0.0 0.0 0.00 0.02 0.02 62 1005.7
20260506000057 68 93 0.0 0.0 0.00 0.02 0.02 63 1005.7
20260505235555 68 160 1.0 1.0 0.00 0.02 0.02 62 1005.6
20260505235052 68 150 0.0 1.0 0.00 0.02 0.02 61 1005.5
20260505234549 69 108 0.0 1.0 0.00 0.02 0.02 62 1005.4
20260505234045 69 96 0.0 0.0 0.00 0.02 0.02 60 1005.3
20260505233543 69 90 0.0 0.0 0.00 0.02 0.02 59 1005.3
20260505233040 70 184 0.0 1.0 0.00 0.02 0.02 58 1005.2
20260505232538 70 31 0.0 0.0 0.00 0.02 0.02 58 1005.1
20260505232035 71 138 0.0 1.0 0.00 0.02 0.02 57 1005.0
20260505231532 71 172 1.0 1.0 0.00 0.02 0.02 57 1005.1
20260505231031 71 261 0.0 0.0 0.00 0.02 0.02 58 1004.9
20260505230527 70 245 1.0 1.0 0.00 0.02 0.02 58 1004.9
20260505230024 70 246 1.0 3.0 0.00 0.02 0.02 59 1004.8
20260505225521 71 89 0.0 0.0 0.00 0.02 0.02 57 1004.6
20260505225017 71 148 0.0 0.0 0.00 0.02 0.02 58 1004.8
20260505224514 71 342 0.0 0.0 0.00 0.02 0.02 59 1004.6
20260505224011 71 122 0.0 1.0 0.00 0.02 0.02 59 1004.7
20260505223508 72 196 1.0 2.0 0.00 0.02 0.02 57 1004.5
20260505223004 72 191 0.0 1.0 0.00 0.02 0.02 57 1004.5
20260505222501 72 44 0.0 1.0 0.00 0.02 0.02 57 1004.3
20260505221956 72 132 0.0 0.0 0.00 0.02 0.02 58 1004.5
20260505221454 72 85 0.0 0.0 0.00 0.02 0.02 57 1004.5
20260505220951 73 75 0.0 0.0 0.00 0.02 0.02 57 1004.7
20260505220448 74 110 1.0 1.0 0.00 0.02 0.02 54 1004.6
20260505215945 75 97 0.0 0.0 0.00 0.02 0.02 54 1004.8
20260505215444 76 268 3.0 5.0 0.00 0.02 0.02 53 1004.6
20260505214941 75 99 0.0 1.0 0.00 0.02 0.02 53 1004.6
20260505214439 75 102 1.0 2.0 0.00 0.02 0.02 52 1004.5
20260505213936 75 180 2.0 2.0 0.00 0.02 0.02 52 1004.4
20260505213433 75 130 0.0 0.0 0.00 0.02 0.02 53 1004.3
20260505212929 76 75 0.0 1.0 0.00 0.02 0.02 53 1004.3
20260505212426 76 153 0.0 1.0 0.00 0.02 0.02 52 1004.3
20260505211923 77 220 2.0 2.0 0.00 0.02 0.02 52 1004.3
20260505211420 77 272 3.0 3.0 0.00 0.02 0.02 50 1004.3
20260505210917 78 270 3.0 5.0 0.00 0.02 0.02 47 1004.1
20260505210423 78 48 2.0 2.0 0.00 0.02 0.02 51 1004.0
20260505205911 78 130 1.0 2.0 0.00 0.02 0.02 52 1004.1
20260505205409 78 258 5.0 6.0 0.00 0.02 0.02 49 1004.1
20260505204906 78 240 3.0 3.0 0.00 0.02 0.02 50 1004.3
20260505204403 78 172 0.0 0.0 0.00 0.02 0.02 52 1004.0
20260505203900 77 111 0.0 1.0 0.00 0.02 0.02 51 1004.3
20260505203357 78 205 5.0 7.0 0.00 0.02 0.02 49 1004.5
20260505202853 79 133 3.0 6.0 0.00 0.02 0.02 50 1004.5
20260505202349 80 174 2.0 2.0 0.00 0.02 0.02 48 1004.5
20260505201846 79 221 1.0 2.0 0.00 0.02 0.02 48 1004.4
20260505201344 80 268 3.0 5.0 0.00 0.02 0.02 48 1004.6
20260505200842 79 97 3.0 6.0 0.00 0.02 0.02 48 1004.7
20260505200338 79 306 3.0 5.0 0.00 0.02 0.02 48 1004.4
20260505195834 79 138 3.0 3.0 0.00 0.02 0.02 50 1004.5
20260505195331 79 199 1.0 1.0 0.00 0.02 0.02 51 1004.6
20260505194828 80 208 3.0 3.0 0.00 0.02 0.02 47 1004.6
20260505194326 81 273 4.0 6.0 0.00 0.02 0.02 46 1004.8
20260505193821 80 111 1.0 1.0 0.00 0.02 0.02 48 1004.7
20260505193319 80 120 3.0 3.0 0.00 0.02 0.02 50 1004.8
20260505192816 80 290 3.0 5.0 0.00 0.02 0.02 49 1005.0
20260505192315 79 307 3.0 5.0 0.00 0.02 0.02 49 1004.7
20260505191812 80 179 1.0 2.0 0.00 0.02 0.02 47 1005.0
20260505191310 81 255 3.0 5.0 0.00 0.02 0.02 46 1004.9
20260505190807 80 260 5.0 7.0 0.00 0.02 0.02 46 1004.7
20260505190302 80 290 5.0 7.0 0.00 0.02 0.02 45 1005.0
20260505185758 80 204 4.0 6.0 0.00 0.02 0.02 47 1005.1
20260505185254 80 160 2.0 3.0 0.00 0.02 0.02 47 1005.5
20260505184750 80 310 3.0 3.0 0.00 0.02 0.02 46 1005.3
20260505184248 80 244 1.0 1.0 0.00 0.02 0.02 48 1005.3
20260505183745 80 31 2.0 5.0 0.00 0.02 0.02 46 1005.5
20260505183242 80 183 1.0 1.0 0.00 0.02 0.02 47 1005.6
20260505182738 80 230 2.0 2.0 0.00 0.02 0.02 47 1005.6
20260505182235 80 308 3.0 6.0 0.00 0.02 0.02 49 1005.5
20260505181732 80 166 5.0 8.0 0.00 0.02 0.02 50 1005.6
20260505181229 80 330 3.0 6.0 0.00 0.02 0.02 47 1005.7
20260505180726 80 287 3.0 5.0 0.00 0.02 0.02 49 1005.5
20260505180222 81 171 2.0 2.0 0.00 0.02 0.02 45 1005.6
20260505175713 80 43 1.0 1.0 0.00 0.02 0.02 46 1005.7
20260505175209 79 240 1.0 1.0 0.00 0.02 0.02 46 1005.8
20260505174706 80 197 2.0 3.0 0.00 0.02 0.02 47 1005.7
20260505174203 80 160 4.0 5.0 0.00 0.02 0.02 46 1006.0
20260505173659 80 200 1.0 2.0 0.00 0.02 0.02 51 1005.8
20260505173156 80 221 5.0 6.0 0.00 0.02 0.02 46 1005.9
20260505172653 79 244 2.0 5.0 0.00 0.02 0.02 45 1005.9
20260505172150 80 99 1.0 1.0 0.00 0.02 0.02 49 1006.0
20260505171649 79 220 2.0 2.0 0.00 0.02 0.02 48 1006.0
20260505171146 79 197 1.0 2.0 0.00 0.02 0.02 50 1005.8
20260505170644 79 287 2.0 2.0 0.00 0.02 0.02 50 1006.1
20260505170141 78 267 2.0 2.0 0.00 0.02 0.02 46 1006.0
20260505165641 78 268 3.0 5.0 0.00 0.02 0.02 47 1006.3
20260505165137 79 81 5.0 7.0 0.00 0.02 0.02 47 1006.4
20260505164632 78 254 3.0 3.0 0.00 0.02 0.02 45 1006.5
20260505164130 78 263 3.0 5.0 0.00 0.02 0.02 51 1006.6
20260505163628 78 223 3.0 5.0 0.00 0.02 0.02 45 1006.7
20260505163126 78 218 3.0 3.0 0.00 0.02 0.02 50 1006.6
20260505162623 78 208 1.0 2.0 0.00 0.02 0.02 47 1007.0
20260505162121 77 170 1.0 2.0 0.00 0.02 0.02 49 1006.9
20260505161618 78 228 2.0 3.0 0.00 0.02 0.02 48 1007.0
20260505161115 76 243 3.0 3.0 0.00 0.02 0.02 52 1007.1
20260505160613 77 296 6.0 8.0 0.00 0.02 0.02 49 1007.1
20260505160110 76 231 2.0 3.0 0.00 0.02 0.02 50 1007.1
20260505153049 75 349 1.0 2.0 0.00 0.02 0.02 52 1007.4
20260505152546 74 357 1.0 1.0 0.00 0.02 0.02 55 1007.7
20260505152042 74 206 1.0 2.0 0.00 0.02 0.02 56 1007.5
20260505151537 74 301 3.0 5.0 0.00 0.02 0.02 55 1007.4
20260505151035 73 22 3.0 3.0 0.00 0.02 0.02 55 1007.5
20260505150531 73 234 4.0 6.0 0.00 0.02 0.02 56 1007.8
20260505140456 67 279 5.0 8.0 0.00 0.02 0.02 69 1008.1
20260505124909 55 207 0.0 1.0 0.00 0.02 0.02 97 1007.7
20260505124407 55 286 1.0 1.0 0.00 0.02 0.02 98 1007.7
20260505123902 54 234 1.0 1.0 0.00 0.02 0.02 99 1007.7
20260505123359 54 168 1.0 1.0 0.00 0.02 0.02 99 1007.3
20260505122855 54 160 0.0 0.0 0.00 0.02 0.02 99 1007.4
20260505122353 54 304 1.0 1.0 0.00 0.02 0.02 99 1007.4
20260505121849 53 43 0.0 0.0 0.00 0.02 0.02 98 1007.3
20260505121346 53 292 1.0 1.0 0.05 0.02 0.02 98 1007.7
20260505120842 53 30 1.0 1.0 0.05 0.02 0.02 97 1007.3
20260505120338 53 68 0.0 0.0 0.07 0.01 0.01 95 1007.5
20260505115837 54 358 1.0 2.0 0.07 0.01 0.01 95 1008.3
20260505115335 54 84 0.0 0.0 0.00 0.00 0.00 94 1007.8
20260505114832 54 33 0.0 0.0 0.00 0.00 0.00 91 1008.3
20260505114329 54 254 1.0 1.0 0.00 0.00 0.00 90 1008.3
20260505113825 54 96 0.0 0.0 0.00 0.00 0.00 89 1008.3
20260505113322 54 108 0.0 0.0 0.00 0.00 0.00 90 1008.3
20260505112817 54 132 0.0 0.0 0.00 0.00 0.00 90 1008.2
20260505112315 53 135 0.0 1.0 0.00 0.00 0.00 91 1008.1
20260505111810 53 141 1.0 1.0 0.00 0.00 0.00 92 1008.1
20260505111306 53 276 0.0 1.0 0.00 0.00 0.00 93 1008.1
20260505110802 52 272 1.0 1.0 0.00 0.00 0.00 93 1008.3
20260505110300 51 130 0.0 0.0 0.00 0.00 0.00 95 1008.1
20260505101734 49 91 0.0 0.0 0.00 0.00 0.00 96 1007.8
20260505101230 50 191 0.0 0.0 0.00 0.00 0.00 95 1007.8
20260505100727 50 134 0.0 1.0 0.00 0.00 0.00 97 1007.5
20260505100223 50 99 0.0 0.0 0.00 0.00 0.00 96 1007.1
20260505095718 50 94 0.0 0.0 0.00 0.00 0.00 96 1007.2
20260505095217 50 78 0.0 0.0 0.00 0.00 0.00 95 1007.2
20260505094712 50 87 0.0 0.0 0.00 0.00 0.00 95 1007.2
20260505094209 50 73 0.0 0.0 0.00 0.00 0.00 94 1007.1
20260505093705 50 50 0.0 0.0 0.00 0.00 0.00 94 1007.2
20260505093203 50 66 0.0 1.0 0.00 0.00 0.00 94 1007.2
20260505092659 50 68 0.0 0.0 0.00 0.00 0.00 93 1006.9
20260505092158 50 126 1.0 1.0 0.00 0.00 0.00 93 1007.2
20260505091655 50 80 0.0 0.0 0.00 0.00 0.00 92 1007.0